TimeEST,TemperatureF,Dew PointF,Humidity,Sea Level PressureIn,VisibilityMPH,Wind Direction,Wind SpeedMPH,Gust SpeedMPH,PrecipitationIn,Events,Conditions,WindDirDegrees,DateUTC
12:53 AM,50.0,34.0,54,30.18,10.0,Calm,Calm,-,N/A,,Clear,0,2012-11-20 05:53:00
1:53 AM,46.9,34.0,61,30.16,10.0,Calm,Calm,-,N/A,,Clear,0,2012-11-20 06:53:00
2:53 AM,44.6,33.8,66,30.16,10.0,Calm,Calm,-,N/A,,Clear,0,2012-11-20 07:53:00
3:53 AM,44.1,35.1,71,30.15,10.0,Calm,Calm,-,N/A,,Clear,0,2012-11-20 08:53:00
4:53 AM,44.1,35.1,71,30.16,10.0,Calm,Calm,-,N/A,,Clear,0,2012-11-20 09:53:00
5:53 AM,43.0,35.1,74,30.16,10.0,Calm,Calm,-,N/A,,Clear,0,2012-11-20 10:53:00
6:53 AM,44.6,33.8,66,30.15,10.0,Calm,Calm,-,N/A,,Clear,0,2012-11-20 11:53:00
7:53 AM,42.1,35.1,76,30.17,10.0,SSW,3.5,-,N/A,,Clear,200,2012-11-20 12:53:00
8:53 AM,46.9,34.0,61,30.17,10.0,Calm,Calm,-,N/A,,Clear,0,2012-11-20 13:53:00
9:53 AM,51.1,34.0,52,30.17,10.0,Calm,Calm,-,N/A,,Clear,0,2012-11-20 14:53:00
10:53 AM,55.0,32.0,42,30.17,10.0,Calm,Calm,-,N/A,,Clear,0,2012-11-20 15:53:00
11:53 AM,59.0,30.9,35,30.14,10.0,West,4.6,-,N/A,,Clear,270,2012-11-20 16:53:00
12:53 PM,60.1,27.0,28,30.12,10.0,Variable,3.5,-,N/A,,Clear,0,2012-11-20 17:53:00
1:53 PM,62.1,28.0,28,30.09,10.0,Calm,Calm,-,N/A,,Clear,0,2012-11-20 18:53:00
2:53 PM,63.0,28.9,28,30.08,10.0,Variable,4.6,-,N/A,,Clear,0,2012-11-20 19:53:00
3:53 PM,62.1,28.0,28,30.07,10.0,Variable,3.5,-,N/A,,Clear,0,2012-11-20 20:53:00
4:53 PM,60.1,28.0,30,30.07,10.0,Calm,Calm,-,N/A,,Clear,0,2012-11-20 21:53:00
5:53 PM,57.9,28.0,32,30.08,10.0,Calm,Calm,-,N/A,,Mostly Cloudy,0,2012-11-20 22:53:00
6:53 PM,57.9,28.9,33,30.09,10.0,Calm,Calm,-,N/A,,Scattered Clouds,0,2012-11-20 23:53:00
7:53 PM,55.9,28.9,36,30.11,10.0,Calm,Calm,-,N/A,,Overcast,0,2012-11-21 00:53:00
8:53 PM,55.9,28.9,36,30.11,10.0,Calm,Calm,-,N/A,,Overcast,0,2012-11-21 01:53:00
9:53 PM,54.0,30.0,40,30.12,10.0,Calm,Calm,-,N/A,,Overcast,0,2012-11-21 02:53:00
10:53 PM,52.0,33.1,49,30.12,10.0,NE,3.5,-,0.00,,Overcast,50,2012-11-21 03:53:00
11:53 PM,51.1,35.1,54,30.12,10.0,East,3.5,-,N/A,,Overcast,90,2012-11-21 04:53:00